Weather History for Fort Campbell, KY

Change the Weather History Date:

Tuesday, May 28, 2013

  Actual Average Record
Temperature  
Mean Temperature 78 °F -  
Max Temperature 86 °F 78 °F 93 °F (1998)
Min Temperature 69 °F 59 °F 51 °F (1999)
Cooling Degree Days 12    
Growing Degree Days 28 (Base 50)    
Moisture  
Dew Point 61 °F    
Average Humidity 58    
Maximum Humidity 76    
Minimum Humidity 38    
Precipitation  
Precipitation 0.00 in - - ()
Sea Level Pressure  
Sea Level Pressure 30.01 in    
Wind  
Wind Speed 11 mph (South)    
Max Wind Speed 23 mph    
Max Gust Speed 32 mph    
Visibility 10 miles    
Events      
Averages and records for this station are not official NWS values.
T = Trace of Precipitation, MM = Missing Value Source: NWS Daily Summary

Daily Weather History Graph

Daily Weather History Graph

Search for Another Location

Airport:

Trip Planner

Search our weather history database for the weather conditions in past years. The results will help you decide how hot, cold, wet, or windy it might be!

Date:

Astronomy

May. 28, 2013 Rise Set
Actual Time 5:34 AM CDT 8:00 PM CDT
Civil Twilight 5:04 AM CDT 8:30 PM CDT
Nautical Twilight 4:27 AM CDT 9:07 PM CDT
Astronomical Twilight 3:47 AM CDT 9:48 PM CDT
Moon 11:27 PM CDT (5/28) 9:19 AM CDT (5/28)
Length of Visible Light 15h 26m
Length of Day
14h 26m
Waning Gibbous, 82% of the Moon is Illuminated
May 28
Waning Gibbous
May 31
Last Quarter
Jun 8
New
Jun 16
First Quarter
Jun 23
Full

Hourly Weather History & Observations

Time (CDT) Temp. Heat Index Dew Point Humidity Pressure Visibility Wind Dir Wind Speed Gust Speed Precip Events Conditions
12:58 AM 72.0 °F - 63.0 °F 73% 29.99 in 10.0 mi South 8.1 mph - N/A   Clear
1:58 AM 71.8 °F - 63.1 °F 74% 30.00 in 10.0 mi South 6.9 mph - N/A   Clear
2:58 AM 71.1 °F - 62.4 °F 74% 29.99 in 10.0 mi South 5.8 mph - N/A   Clear
3:58 AM 70.2 °F - 62.1 °F 75% 29.99 in 10.0 mi South 6.9 mph - N/A   Clear
4:58 AM 69.4 °F - 61.5 °F 76% 30.00 in 10.0 mi South 8.1 mph - N/A   Clear
5:58 AM 69.4 °F - 61.3 °F 75% 30.02 in 10.0 mi South 8.1 mph - N/A   Clear
6:58 AM 69.8 °F - 61.7 °F 75% 30.05 in 10.0 mi South 6.9 mph - N/A   Clear
7:58 AM 72.9 °F - 62.4 °F 70% 30.05 in 10.0 mi South 11.5 mph - N/A   Clear
8:58 AM 76.6 °F - 64.8 °F 67% 30.06 in 10.0 mi SSW 15.0 mph 21.9 mph N/A   Clear
9:58 AM 79.3 °F - 66.4 °F 64% 30.06 in 10.0 mi SW 13.8 mph 20.7 mph N/A   Clear
10:58 AM 81.9 °F 83.5 °F 64.6 °F 56% 30.05 in 10.0 mi SW 20.7 mph 27.6 mph N/A   Clear
11:58 AM 83.8 °F 84.7 °F 62.8 °F 49% 30.05 in 10.0 mi SSW 23.0 mph 32.2 mph N/A   Clear
12:58 PM 84.2 °F 84.6 °F 61.3 °F 46% 30.03 in 10.0 mi SSW 18.4 mph 27.6 mph N/A   Clear
12:59 PM 84.2 °F 84.6 °F 61.3 °F 46% 30.03 in 10.0 mi SSW 18.4 mph 27.6 mph N/A   Clear
1:59 PM 85.3 °F 84.8 °F 59.0 °F 41% 30.03 in 10.0 mi SSW 18.4 mph 27.6 mph N/A   Clear
2:59 PM 86.0 °F 85.7 °F 59.7 °F 41% 30.01 in 10.0 mi South 17.3 mph - N/A   Clear
3:58 PM 86.0 °F 85.4 °F 59.2 °F 40% 30.01 in 10.0 mi SSW 18.4 mph 24.2 mph N/A   Clear
4:58 PM 85.3 °F 84.8 °F 58.8 °F 41% 29.99 in 10.0 mi South 11.5 mph - N/A   Clear
5:58 PM 85.1 °F 84.1 °F 56.7 °F 38% 29.99 in 10.0 mi South 15.0 mph 20.7 mph N/A   Clear
6:58 PM 83.1 °F 82.4 °F 56.7 °F 40% 29.98 in 10.0 mi South 10.4 mph 19.6 mph N/A   Clear
7:58 PM 79.2 °F - 58.5 °F 49% 29.99 in 10.0 mi South 5.8 mph - N/A   Clear
8:57 PM 77.0 °F - 59.0 °F 54% 29.99 in 10.0 mi South 6.9 mph - N/A   Clear
8:58 PM 76.5 °F - 59.7 °F 56% 29.99 in 10.0 mi South 8.1 mph - N/A   Clear
9:57 PM 74.7 °F - 60.1 °F 60% 29.99 in 10.0 mi South 8.1 mph - N/A   Clear
10:58 PM 73.0 °F - 59.5 °F 62% 29.99 in 10.0 mi South 5.8 mph - N/A   Clear
11:58 PM 71.6 °F - 59.4 °F 65% 30.02 in 10.0 mi South 4.6 mph - N/A   Clear